Starlink 32587

operational
NORAD ID: 62180 Int'l Des: 2024-225 Owner: SPXS Country: US Constellation: starlink
LEOCIRCULAR

Starlink 32587について

説明を読み込み中...

リアルタイム位置

3D地球を読み込み中...

次回通過

高度履歴

Altitude vs Time

uPlot chart will show altitude changes over time

軌道要素

1 62180U 24225T 25256.68395105 .00004383 00000-0 37479-3 0 9990
2 62180 70.0000 250.5643 0003136 269.6220 90.4580 14.98337062 43366
Epoch: Sep 13, 2025 • Age: 43 hours

現在のステータス

高度 593.9 km
速度 7.56 km/s
衛星直下点 -64.63°S, 46.85°W
打ち上げ日 Nov 30, 2024
運用期間 0.7 years
タイプ internet

技術仕様

分類 Payload
質量 730.00 kg
乾燥質量 700.00 kg
総質量 730.00 kg
長さ 0.30 m
直径 4.10 m
スパン 29.00 m
形状 Box + pan
製造者 SPXS
バスタイプ Starlink V2M
フェーズステータス In Orbit
所有者/国 SPXS/US

大規模コンステレーション

Loading constellations...